Time,TemperatureF,DewpointF,PressureIn,WindDirection,WindDirectionDegrees,WindSpeedMPH,WindSpeedGustMPH,Humidity,HourlyPrecipIn,Conditions,Clouds,dailyrainin,SoftwareType,DateUTC
2017-07-21 00:03:00,70.6,68.2,29.95,SE,124,0.0,0.0,92,0.00,,,0.00,vanprod-2.3,2017-07-21 05:03:00,
2017-07-21 00:08:00,70.6,68.2,29.95,SE,124,0.0,0.0,92,0.00,,,0.00,vanprod-2.3,2017-07-21 05:08:00,
2017-07-21 00:13:00,70.4,68.0,29.95,SE,124,0.0,0.0,92,0.00,,,0.00,vanprod-2.3,2017-07-21 05:13:00,
2017-07-21 00:18:00,70.4,68.0,29.95,SE,124,0.0,0.0,92,0.00,,,0.00,vanprod-2.3,2017-07-21 05:18:00,
2017-07-21 00:23:00,70.3,67.9,29.95,SE,124,0.0,0.0,92,0.00,,,0.00,vanprod-2.3,2017-07-21 05:23:00,
2017-07-21 00:28:00,70.3,68.2,29.96,SE,124,0.0,0.0,93,0.00,,,0.00,vanprod-2.3,2017-07-21 05:28:00,
2017-07-21 00:33:00,70.3,68.2,29.96,SE,124,0.0,0.0,93,0.00,,,0.00,vanprod-2.3,2017-07-21 05:33:00,
2017-07-21 00:38:00,70.3,68.2,29.96,SE,124,0.0,0.0,93,0.00,,,0.00,vanprod-2.3,2017-07-21 05:38:00,
2017-07-21 00:43:00,70.3,68.2,29.96,SE,124,0.0,0.0,93,0.00,,,0.00,vanprod-2.3,2017-07-21 05:43:00,
2017-07-21 00:48:00,70.1,68.0,29.96,SE,124,0.0,0.0,93,0.00,,,0.00,vanprod-2.3,2017-07-21 05:48:00,
2017-07-21 00:53:00,70.1,68.0,29.96,SE,124,0.0,0.0,93,0.00,,,0.00,vanprod-2.3,2017-07-21 05:53:00,
2017-07-21 00:58:00,70.1,68.0,29.96,SE,124,0.0,0.0,93,0.00,,,0.00,vanprod-2.3,2017-07-21 05:58:00,
2017-07-21 01:03:00,69.9,67.8,29.96,SE,124,0.0,0.0,93,0.00,,,0.00,vanprod-2.3,2017-07-21 06:03:00,
2017-07-21 01:08:00,69.8,67.7,29.96,SE,124,0.0,0.0,93,0.00,,,0.00,vanprod-2.3,2017-07-21 06:08:00,
2017-07-21 01:13:00,69.6,67.5,29.95,SE,124,0.0,0.0,93,0.00,,,0.00,vanprod-2.3,2017-07-21 06:13:00,
2017-07-21 01:18:00,69.4,67.3,29.95,SE,124,0.0,0.0,93,0.00,,,0.00,vanprod-2.3,2017-07-21 06:18:00,
2017-07-21 01:23:00,69.3,67.2,29.95,SE,124,0.0,0.0,93,0.00,,,0.00,vanprod-2.3,2017-07-21 06:23:00,
2017-07-21 01:28:00,69.1,67.0,29.95,SE,124,0.0,0.0,93,0.00,,,0.00,vanprod-2.3,2017-07-21 06:28:00,
2017-07-21 01:33:00,69.1,67.3,29.95,SE,124,0.0,0.0,94,0.00,,,0.00,vanprod-2.3,2017-07-21 06:33:00,
2017-07-21 01:38:00,69.1,67.3,29.95,SE,124,0.0,0.0,94,0.00,,,0.00,vanprod-2.3,2017-07-21 06:38:00,
2017-07-21 01:43:00,68.9,67.1,29.95,SE,124,0.0,0.0,94,0.00,,,0.00,vanprod-2.3,2017-07-21 06:43:00,
2017-07-21 01:48:00,68.8,67.0,29.95,SE,124,0.0,0.0,94,0.00,,,0.00,vanprod-2.3,2017-07-21 06:48:00,
2017-07-21 01:53:00,68.8,67.0,29.95,SE,124,0.0,0.0,94,0.00,,,0.00,vanprod-2.3,2017-07-21 06:53:00,
2017-07-21 01:58:00,68.8,67.3,29.95,SE,124,0.0,0.0,95,0.00,,,0.00,vanprod-2.3,2017-07-21 06:58:00,
2017-07-21 02:03:00,68.8,67.3,29.96,SE,124,0.0,0.0,95,0.00,,,0.00,vanprod-2.3,2017-07-21 07:03:00,
2017-07-21 02:08:00,68.6,67.1,29.95,SE,124,0.0,0.0,95,0.00,,,0.00,vanprod-2.3,2017-07-21 07:08:00,
2017-07-21 02:13:00,68.6,67.1,29.95,SE,124,0.0,0.0,95,0.00,,,0.00,vanprod-2.3,2017-07-21 07:13:00,
2017-07-21 02:18:00,68.6,67.1,29.95,SE,124,0.0,0.0,95,0.00,,,0.00,vanprod-2.3,2017-07-21 07:18:00,
2017-07-21 02:23:00,68.8,67.3,29.95,SE,124,0.0,0.0,95,0.00,,,0.00,vanprod-2.3,2017-07-21 07:23:00,
2017-07-21 02:24:00,68.8,67.3,29.95,SE,124,0.0,0.0,95,0.00,,,0.00,vanprod-2.3,2017-07-21 07:24:00,
2017-07-21 02:29:00,68.9,67.7,29.95,ESE,112,0.0,0.0,96,0.00,,,0.00,vanprod-2.3,2017-07-21 07:29:00,
2017-07-21 02:34:00,68.9,67.7,29.94,ESE,110,0.0,0.0,96,0.00,,,0.00,vanprod-2.3,2017-07-21 07:34:00,
2017-07-21 02:39:00,68.9,67.7,29.94,ESE,110,0.0,0.0,96,0.00,,,0.00,vanprod-2.3,2017-07-21 07:39:00,
2017-07-21 02:44:00,68.9,67.7,29.94,ESE,117,0.0,0.0,96,0.00,,,0.00,vanprod-2.3,2017-07-21 07:44:00,
2017-07-21 02:49:00,68.9,67.7,29.94,ESE,117,0.0,0.0,96,0.00,,,0.00,vanprod-2.3,2017-07-21 07:49:00,
2017-07-21 02:54:00,68.9,67.7,29.94,ESE,117,0.0,0.0,96,0.00,,,0.00,vanprod-2.3,2017-07-21 07:54:00,
2017-07-21 02:59:00,68.9,67.7,29.94,ESE,117,0.0,0.0,96,0.00,,,0.00,vanprod-2.3,2017-07-21 07:59:00,
2017-07-21 03:04:00,68.9,67.7,29.94,ESE,117,0.0,0.0,96,0.00,,,0.00,vanprod-2.3,2017-07-21 08:04:00,
2017-07-21 03:09:00,68.9,67.7,29.93,ESE,117,0.0,0.0,96,0.00,,,0.00,vanprod-2.3,2017-07-21 08:09:00,
2017-07-21 03:14:00,68.9,67.7,29.93,ESE,117,0.0,0.0,96,0.00,,,0.00,vanprod-2.3,2017-07-21 08:14:00,
2017-07-21 03:19:00,68.9,67.7,29.93,ESE,117,0.0,0.0,96,0.00,,,0.00,vanprod-2.3,2017-07-21 08:19:00,
2017-07-21 03:24:00,69.1,67.9,29.93,ESE,107,0.0,0.0,96,0.00,,,0.00,vanprod-2.3,2017-07-21 08:24:00,
2017-07-21 03:29:00,68.9,67.7,29.92,ESE,107,0.0,0.0,96,0.00,,,0.00,vanprod-2.3,2017-07-21 08:29:00,
2017-07-21 03:34:00,68.8,67.6,29.91,ESE,107,0.0,0.0,96,0.00,,,0.00,vanprod-2.3,2017-07-21 08:34:00,
2017-07-21 03:39:00,68.8,67.6,29.91,ESE,107,0.0,0.0,96,0.00,,,0.00,vanprod-2.3,2017-07-21 08:39:00,
2017-07-21 03:44:00,68.8,67.6,29.91,ESE,107,0.0,0.0,96,0.00,,,0.00,vanprod-2.3,2017-07-21 08:44:00,
2017-07-21 03:49:00,68.8,67.6,29.91,ESE,107,0.0,0.0,96,0.00,,,0.00,vanprod-2.3,2017-07-21 08:49:00,
2017-07-21 03:54:00,68.6,67.4,29.91,ESE,107,0.0,0.0,96,0.00,,,0.00,vanprod-2.3,2017-07-21 08:54:00,
2017-07-21 03:59:00,68.6,67.4,29.90,ESE,107,0.0,0.0,96,0.00,,,0.00,vanprod-2.3,2017-07-21 08:59:00,
2017-07-21 04:04:00,68.6,67.4,29.90,ESE,107,0.0,0.0,96,0.00,,,0.00,vanprod-2.3,2017-07-21 09:04:00,
2017-07-21 04:09:00,68.4,67.2,29.89,ESE,107,0.0,0.0,96,0.00,,,0.00,vanprod-2.3,2017-07-21 09:09:00,
2017-07-21 04:14:00,68.4,67.2,29.89,ESE,107,0.0,0.0,96,0.00,,,0.00,vanprod-2.3,2017-07-21 09:14:00,
2017-07-21 04:19:00,68.4,67.2,29.89,ESE,107,0.0,0.0,96,0.00,,,0.00,vanprod-2.3,2017-07-21 09:19:00,
2017-07-21 04:24:00,67.8,66.6,29.88,SSE,158,0.0,0.0,96,0.00,,,0.00,vanprod-2.3,2017-07-21 09:24:00,
2017-07-21 04:29:00,67.8,66.6,29.88,SSE,158,0.0,0.0,96,0.00,,,0.00,vanprod-2.3,2017-07-21 09:29:00,
2017-07-21 04:34:00,67.9,66.7,29.87,SSE,158,0.0,0.0,96,0.00,,,0.00,vanprod-2.3,2017-07-21 09:34:00,
2017-07-21 04:39:00,68.9,67.7,29.87,East,99,0.0,0.0,96,0.00,,,0.00,vanprod-2.3,2017-07-21 09:39:00,
2017-07-21 04:44:00,68.3,67.1,29.87,SSE,148,0.0,0.0,96,0.00,,,0.00,vanprod-2.3,2017-07-21 09:44:00,
2017-07-21 04:49:00,68.3,67.1,29.87,SSE,147,0.0,0.0,96,0.00,,,0.00,vanprod-2.3,2017-07-21 09:49:00,
2017-07-21 04:54:00,68.3,67.1,29.87,East,91,0.0,0.0,96,0.00,,,0.00,vanprod-2.3,2017-07-21 09:54:00,
2017-07-21 04:59:00,68.3,67.1,29.86,SE,137,0.0,0.0,96,0.00,,,0.00,vanprod-2.3,2017-07-21 09:59:00,
2017-07-21 05:04:00,68.6,67.4,29.86,ESE,113,2.0,0.0,96,0.00,,,0.00,vanprod-2.3,2017-07-21 10:04:00,
2017-07-21 05:09:00,68.4,67.2,29.86,SE,138,0.0,0.0,96,0.00,,,0.00,vanprod-2.3,2017-07-21 10:09:00,
2017-07-21 05:14:00,68.6,67.4,29.85,ESE,122,0.0,0.0,96,0.00,,,0.00,vanprod-2.3,2017-07-21 10:14:00,
2017-07-21 05:19:00,68.4,67.2,29.85,ESE,114,0.0,0.0,96,0.00,,,0.00,vanprod-2.3,2017-07-21 10:19:00,
2017-07-21 05:24:00,68.6,67.4,29.85,SE,131,0.0,0.0,96,0.00,,,0.00,vanprod-2.3,2017-07-21 10:24:00,
2017-07-21 05:29:00,68.4,67.2,29.85,SE,140,0.0,0.0,96,0.00,,,0.00,vanprod-2.3,2017-07-21 10:29:00,
2017-07-21 05:34:00,68.3,67.1,29.85,SE,140,0.0,0.0,96,0.00,,,0.00,vanprod-2.3,2017-07-21 10:34:00,
2017-07-21 05:39:00,68.3,67.1,29.84,SE,140,0.0,0.0,96,0.00,,,0.00,vanprod-2.3,2017-07-21 10:39:00,
2017-07-21 05:44:00,68.4,67.2,29.83,SE,140,0.0,0.0,96,0.00,,,0.00,vanprod-2.3,2017-07-21 10:44:00,
2017-07-21 05:49:00,68.3,67.1,29.83,SE,140,0.0,0.0,96,0.00,,,0.00,vanprod-2.3,2017-07-21 10:49:00,
2017-07-21 05:54:00,68.3,67.4,29.83,SE,140,0.0,0.0,97,0.00,,,0.00,vanprod-2.3,2017-07-21 10:54:00,
2017-07-21 05:59:00,68.9,68.0,29.82,ESE,102,0.0,0.0,97,0.00,,,0.00,vanprod-2.3,2017-07-21 10:59:00,
2017-07-21 06:04:00,68.9,68.0,29.82,East,96,0.0,0.0,97,0.00,,,0.00,vanprod-2.3,2017-07-21 11:04:00,
2017-07-21 06:09:00,68.9,68.0,29.82,East,96,0.0,0.0,97,0.00,,,0.00,vanprod-2.3,2017-07-21 11:09:00,
2017-07-21 06:14:00,68.6,67.7,29.84,ESE,117,0.0,0.0,97,0.00,,,0.00,vanprod-2.3,2017-07-21 11:14:00,
2017-07-21 06:19:00,68.6,67.7,29.85,ESE,116,1.0,0.0,97,0.00,,,0.00,vanprod-2.3,2017-07-21 11:19:00,
2017-07-21 06:24:00,69.3,68.4,29.86,ENE,76,0.0,0.0,97,0.00,,,0.00,vanprod-2.3,2017-07-21 11:24:00,
2017-07-21 06:29:00,69.4,68.5,29.88,ENE,78,0.0,0.0,97,0.00,,,0.00,vanprod-2.3,2017-07-21 11:29:00,
2017-07-21 06:34:00,68.1,67.2,29.87,ESE,118,0.0,0.0,97,0.00,,,0.00,vanprod-2.3,2017-07-21 11:34:00,
2017-07-21 06:39:00,68.4,67.5,29.87,South,171,0.0,0.0,97,0.00,,,0.00,vanprod-2.3,2017-07-21 11:39:00,
2017-07-21 06:44:00,68.6,67.7,29.89,South,184,0.0,0.0,97,0.00,,,0.00,vanprod-2.3,2017-07-21 11:44:00,
2017-07-21 06:49:00,69.3,68.4,29.89,SSE,152,0.0,0.0,97,0.00,,,0.00,vanprod-2.3,2017-07-21 11:49:00,
2017-07-21 06:54:00,69.4,68.5,29.90,SSE,153,0.0,0.0,97,0.00,,,0.00,vanprod-2.3,2017-07-21 11:54:00,
2017-07-21 06:59:00,70.6,69.7,29.89,East,101,0.0,0.0,97,0.00,,,0.00,vanprod-2.3,2017-07-21 11:59:00,
2017-07-21 07:04:00,69.4,68.5,29.89,SSE,168,0.0,3.0,97,0.00,,,0.00,vanprod-2.3,2017-07-21 12:04:00,
2017-07-21 07:09:00,69.9,68.7,29.89,SSE,147,0.0,0.0,96,0.00,,,0.00,vanprod-2.3,2017-07-21 12:09:00,
2017-07-21 07:14:00,70.4,69.2,29.89,SE,138,0.0,0.0,96,0.00,,,0.00,vanprod-2.3,2017-07-21 12:14:00,
2017-07-21 07:19:00,70.1,68.9,29.89,SSE,154,1.0,0.0,96,0.00,,,0.00,vanprod-2.3,2017-07-21 12:19:00,
2017-07-21 07:24:00,70.3,69.1,29.90,SE,138,1.0,0.0,96,0.00,,,0.00,vanprod-2.3,2017-07-21 12:24:00,
2017-07-21 07:29:00,70.4,69.2,29.90,SE,126,0.0,1.0,96,0.00,,,0.00,vanprod-2.3,2017-07-21 12:29:00,
2017-07-21 07:34:00,69.9,68.7,29.89,South,178,0.0,1.0,96,0.00,,,0.00,vanprod-2.3,2017-07-21 12:34:00,
2017-07-21 07:39:00,69.8,68.6,29.89,South,191,0.0,1.0,96,0.00,,,0.00,vanprod-2.3,2017-07-21 12:39:00,
2017-07-21 07:44:00,69.8,68.6,29.88,South,183,1.0,0.0,96,0.00,,,0.00,vanprod-2.3,2017-07-21 12:44:00,
2017-07-21 07:49:00,70.1,68.9,29.88,SSW,195,1.0,1.0,96,0.00,,,0.00,vanprod-2.3,2017-07-21 12:49:00,
2017-07-21 07:54:00,69.1,67.6,29.87,SW,218,0.0,0.0,95,0.00,,,0.00,vanprod-2.3,2017-07-21 12:54:00,
2017-07-21 07:59:00,70.3,68.8,29.86,SSE,153,2.0,3.0,95,0.00,,,0.00,vanprod-2.3,2017-07-21 12:59:00,
2017-07-21 08:04:00,68.9,66.8,29.85,South,169,1.0,0.0,93,0.00,,,0.00,vanprod-2.3,2017-07-21 13:04:00,
2017-07-21 08:09:00,70.3,67.2,29.86,SSW,202,1.0,2.0,90,0.00,,,0.00,vanprod-2.3,2017-07-21 13:09:00,
2017-07-21 08:14:00,69.3,65.9,29.85,SSW,200,1.0,1.0,89,0.00,,,0.00,vanprod-2.3,2017-07-21 13:14:00,
2017-07-21 08:19:00,70.4,66.7,29.85,SSW,199,0.0,0.0,88,0.00,,,0.00,vanprod-2.3,2017-07-21 13:19:00,
2017-07-21 08:24:00,70.8,67.1,29.85,SE,145,0.0,0.0,88,0.00,,,0.00,vanprod-2.3,2017-07-21 13:24:00,
2017-07-21 08:29:00,70.8,67.4,29.85,SE,145,0.0,0.0,89,0.00,,,0.00,vanprod-2.3,2017-07-21 13:29:00,
2017-07-21 08:34:00,68.6,65.2,29.85,West,269,0.0,0.0,89,0.00,,,0.00,vanprod-2.3,2017-07-21 13:34:00,
2017-07-21 08:39:00,67.6,64.6,29.85,NW,318,0.0,0.0,90,0.00,,,0.00,vanprod-2.3,2017-07-21 13:39:00,
2017-07-21 08:44:00,68.3,65.3,29.85,WNW,284,0.0,0.0,90,0.00,,,0.00,vanprod-2.3,2017-07-21 13:44:00,
2017-07-21 08:49:00,70.4,67.3,29.85,SSE,166,0.0,0.0,90,0.00,,,0.00,vanprod-2.3,2017-07-21 13:49:00,
2017-07-21 08:54:00,70.8,66.7,29.85,SSE,159,3.0,3.0,87,0.00,,,0.00,vanprod-2.3,2017-07-21 13:54:00,
2017-07-21 08:59:00,71.3,66.9,29.85,SSE,160,2.0,0.0,86,0.00,,,0.00,vanprod-2.3,2017-07-21 13:59:00,
2017-07-21 09:04:00,71.0,66.9,29.85,South,184,0.0,0.0,87,0.00,,,0.00,vanprod-2.3,2017-07-21 14:04:00,
2017-07-21 09:09:00,71.8,67.7,29.84,ESE,107,0.0,1.0,87,0.01,,,0.01,vanprod-2.3,2017-07-21 14:09:00,
2017-07-21 09:14:00,71.0,67.6,29.84,ESE,123,0.0,0.0,89,0.01,,,0.01,vanprod-2.3,2017-07-21 14:14:00,
2017-07-21 09:19:00,71.0,67.9,29.84,SE,134,0.0,0.0,90,0.02,,,0.02,vanprod-2.3,2017-07-21 14:19:00,
2017-07-21 09:24:00,71.8,69.0,29.82,East,92,0.0,0.0,91,0.03,,,0.03,vanprod-2.3,2017-07-21 14:24:00,
2017-07-21 09:29:00,71.5,69.1,29.82,ESE,104,0.0,0.0,92,0.04,,,0.04,vanprod-2.3,2017-07-21 14:29:00,
2017-07-21 09:34:00,71.3,69.2,29.81,ESE,102,0.0,0.0,93,0.05,,,0.05,vanprod-2.3,2017-07-21 14:34:00,
2017-07-21 09:39:00,71.1,69.0,29.80,ESE,119,0.0,0.0,93,0.05,,,0.05,vanprod-2.3,2017-07-21 14:39:00,
2017-07-21 09:44:00,71.0,69.2,29.79,ESE,117,0.0,0.0,94,0.06,,,0.06,vanprod-2.3,2017-07-21 14:44:00,
2017-07-21 09:49:00,71.0,69.5,29.79,ESE,121,0.0,0.0,95,0.06,,,0.06,vanprod-2.3,2017-07-21 14:49:00,
2017-07-21 09:54:00,72.5,71.0,29.79,NNE,23,0.0,1.0,95,0.06,,,0.06,vanprod-2.3,2017-07-21 14:54:00,
2017-07-21 09:59:00,73.2,71.7,29.80,North,360,1.0,1.0,95,0.06,,,0.06,vanprod-2.3,2017-07-21 14:59:00,
2017-07-21 10:04:00,73.4,72.2,29.82,North,360,0.0,0.0,96,0.06,,,0.06,vanprod-2.3,2017-07-21 15:04:00,
2017-07-21 10:09:00,71.0,69.8,29.82,WNW,288,0.0,0.0,96,0.05,,,0.06,vanprod-2.3,2017-07-21 15:09:00,
2017-07-21 10:14:00,73.7,72.5,29.82,NNE,17,1.0,0.0,96,0.05,,,0.06,vanprod-2.3,2017-07-21 15:14:00,
2017-07-21 10:19:00,73.9,72.7,29.81,NNE,17,0.0,0.0,96,0.04,,,0.06,vanprod-2.3,2017-07-21 15:19:00,
2017-07-21 10:24:00,74.2,73.0,29.82,NNE,17,0.0,0.0,96,0.03,,,0.06,vanprod-2.3,2017-07-21 15:24:00,
2017-07-21 10:29:00,67.9,66.7,29.82,NNW,336,0.0,0.0,96,0.02,,,0.06,vanprod-2.3,2017-07-21 15:29:00,
2017-07-21 10:34:00,67.3,65.8,29.82,North,359,1.0,0.0,95,0.01,,,0.06,vanprod-2.3,2017-07-21 15:34:00,
2017-07-21 10:39:00,67.4,65.9,29.82,North,359,0.0,0.0,95,0.01,,,0.06,vanprod-2.3,2017-07-21 15:39:00,
2017-07-21 10:44:00,67.8,66.3,29.82,North,359,0.0,1.0,95,0.00,,,0.06,vanprod-2.3,2017-07-21 15:44:00,
2017-07-21 10:49:00,74.4,71.9,29.82,ESE,106,1.0,2.0,92,0.00,,,0.06,vanprod-2.3,2017-07-21 15:49:00,
2017-07-21 10:54:00,76.2,73.7,29.83,North,10,0.0,1.0,92,0.00,,,0.06,vanprod-2.3,2017-07-21 15:54:00,
2017-07-21 10:59:00,73.7,70.9,29.83,SE,129,0.0,0.0,91,0.00,,,0.06,vanprod-2.3,2017-07-21 15:59:00,
2017-07-21 11:04:00,74.2,71.1,29.82,SE,127,0.0,0.0,90,0.00,,,0.06,vanprod-2.3,2017-07-21 16:04:00,
2017-07-21 11:09:00,75.1,71.3,29.82,ESE,109,1.0,2.0,88,0.00,,,0.06,vanprod-2.3,2017-07-21 16:09:00,
2017-07-21 11:14:00,75.3,71.8,29.82,ESE,108,0.0,2.0,89,0.00,,,0.06,vanprod-2.3,2017-07-21 16:14:00,
2017-07-21 11:19:00,76.2,72.1,29.82,ESE,110,1.0,2.0,87,0.00,,,0.06,vanprod-2.3,2017-07-21 16:19:00,
2017-07-21 11:24:00,76.7,71.5,29.82,SSE,168,2.0,6.0,84,0.00,,,0.06,vanprod-2.3,2017-07-21 16:24:00,
2017-07-21 11:29:00,76.7,71.2,29.82,ESE,117,1.0,0.0,83,0.00,,,0.06,vanprod-2.3,2017-07-21 16:29:00,
2017-07-21 11:34:00,77.6,71.3,29.82,ESE,113,1.0,0.0,81,0.00,,,0.06,vanprod-2.3,2017-07-21 16:34:00,
2017-07-21 11:39:00,78.0,72.1,29.82,SSE,147,3.0,0.0,82,0.00,,,0.06,vanprod-2.3,2017-07-21 16:39:00,
2017-07-21 11:44:00,78.0,72.1,29.82,ESE,111,1.0,0.0,82,0.00,,,0.06,vanprod-2.3,2017-07-21 16:44:00,
2017-07-21 11:49:00,78.3,72.4,29.82,ESE,117,2.0,0.0,82,0.00,,,0.06,vanprod-2.3,2017-07-21 16:49:00,
2017-07-21 11:54:00,78.5,72.6,29.82,South,179,2.0,2.0,82,0.00,,,0.06,vanprod-2.3,2017-07-21 16:54:00,
2017-07-21 11:59:00,78.7,72.0,29.82,SE,129,3.0,7.0,80,0.00,,,0.06,vanprod-2.3,2017-07-21 16:59:00,
2017-07-21 12:04:00,78.9,72.2,29.82,ESE,122,1.0,5.0,80,0.00,,,0.06,vanprod-2.3,2017-07-21 17:04:00,
2017-07-21 12:09:00,79.4,71.9,29.83,SE,143,4.0,4.0,78,0.00,,,0.06,vanprod-2.3,2017-07-21 17:09:00,
2017-07-21 12:14:00,79.4,71.6,29.84,SE,127,3.0,3.0,77,0.00,,,0.06,vanprod-2.3,2017-07-21 17:14:00,
2017-07-21 12:19:00,80.0,72.5,29.84,East,90,1.0,5.0,78,0.00,,,0.06,vanprod-2.3,2017-07-21 17:19:00,
2017-07-21 12:24:00,79.8,72.0,29.84,South,185,1.0,0.0,77,0.00,,,0.06,vanprod-2.3,2017-07-21 17:24:00,
2017-07-21 12:29:00,80.9,72.2,29.84,South,179,0.0,1.0,75,0.00,,,0.06,vanprod-2.3,2017-07-21 17:29:00,
2017-07-21 12:34:00,81.1,72.8,29.84,SE,127,2.0,2.0,76,0.00,,,0.06,vanprod-2.3,2017-07-21 17:34:00,
2017-07-21 12:39:00,81.3,72.6,29.84,East,94,1.0,5.0,75,0.00,,,0.06,vanprod-2.3,2017-07-21 17:39:00,
2017-07-21 12:44:00,81.7,72.6,29.84,SE,138,1.0,2.0,74,0.00,,,0.06,vanprod-2.3,2017-07-21 17:44:00,
2017-07-21 12:49:00,81.1,72.4,29.84,SE,138,2.0,8.0,75,0.00,,,0.06,vanprod-2.3,2017-07-21 17:49:00,
2017-07-21 12:54:00,81.5,72.4,29.84,ESE,112,2.0,2.0,74,0.00,,,0.06,vanprod-2.3,2017-07-21 17:54:00,
2017-07-21 12:59:00,81.5,72.8,29.85,SW,227,1.0,0.0,75,0.00,,,0.06,vanprod-2.3,2017-07-21 17:59:00,
2017-07-21 13:04:00,82.7,73.2,29.85,South,185,1.0,8.0,73,0.00,,,0.06,vanprod-2.3,2017-07-21 18:04:00,
2017-07-21 13:09:00,82.9,73.0,29.85,SE,129,1.0,1.0,72,0.00,,,0.06,vanprod-2.3,2017-07-21 18:09:00,
2017-07-21 13:14:00,82.1,73.0,29.85,SSW,200,1.0,0.0,74,0.00,,,0.06,vanprod-2.3,2017-07-21 18:14:00,
2017-07-21 13:19:00,82.1,73.0,29.85,SE,129,2.0,2.0,74,0.00,,,0.06,vanprod-2.3,2017-07-21 18:19:00,
2017-07-21 13:24:00,82.3,72.4,29.85,SSE,158,1.0,0.0,72,0.00,,,0.06,vanprod-2.3,2017-07-21 18:24:00,
2017-07-21 13:29:00,82.9,72.5,29.85,SSE,158,1.0,3.0,71,0.00,,,0.06,vanprod-2.3,2017-07-21 18:29:00,
2017-07-21 13:34:00,83.3,72.5,29.85,SE,146,1.0,1.0,70,0.00,,,0.06,vanprod-2.3,2017-07-21 18:34:00,
2017-07-21 13:39:00,83.5,73.9,29.85,SE,131,2.0,6.0,73,0.00,,,0.06,vanprod-2.3,2017-07-21 18:39:00,
2017-07-21 13:44:00,82.3,72.0,29.85,South,169,1.0,3.0,71,0.00,,,0.06,vanprod-2.3,2017-07-21 18:44:00,
2017-07-21 13:49:00,82.7,71.9,29.85,South,169,2.0,8.0,70,0.00,,,0.06,vanprod-2.3,2017-07-21 18:49:00,
2017-07-21 13:54:00,83.3,72.1,29.85,SE,138,2.0,6.0,69,0.00,,,0.06,vanprod-2.3,2017-07-21 18:54:00,
2017-07-21 13:59:00,83.6,72.4,29.84,South,183,0.0,0.0,69,0.00,,,0.06,vanprod-2.3,2017-07-21 18:59:00,
2017-07-21 14:04:00,84.2,72.9,29.84,SE,145,2.0,0.0,69,0.00,,,0.06,vanprod-2.3,2017-07-21 19:04:00,
2017-07-21 14:09:00,84.4,71.4,29.84,South,188,2.0,2.0,65,0.00,,,0.06,vanprod-2.3,2017-07-21 19:09:00,
2017-07-21 14:14:00,84.4,71.8,29.84,South,182,2.0,2.0,66,0.00,,,0.06,vanprod-2.3,2017-07-21 19:14:00,
2017-07-21 14:19:00,85.2,72.6,29.84,SE,126,1.0,6.0,66,0.00,,,0.06,vanprod-2.3,2017-07-21 19:19:00,
2017-07-21 14:24:00,85.0,72.8,29.84,SW,220,0.0,1.0,67,0.00,,,0.06,vanprod-2.3,2017-07-21 19:24:00,
2017-07-21 14:29:00,84.8,73.5,29.84,ESE,115,0.0,2.0,69,0.00,,,0.06,vanprod-2.3,2017-07-21 19:29:00,
2017-07-21 14:34:00,85.2,72.6,29.84,South,177,0.0,0.0,66,0.00,,,0.06,vanprod-2.3,2017-07-21 19:34:00,
2017-07-21 14:39:00,84.8,72.6,29.84,South,174,1.0,0.0,67,0.00,,,0.06,vanprod-2.3,2017-07-21 19:39:00,
2017-07-21 14:44:00,84.8,73.1,29.84,South,177,1.0,2.0,68,0.00,,,0.06,vanprod-2.3,2017-07-21 19:44:00,
2017-07-21 14:49:00,84.6,73.3,29.84,South,189,0.0,2.0,69,0.00,,,0.06,vanprod-2.3,2017-07-21 19:49:00,
2017-07-21 14:54:00,85.0,73.7,29.84,South,179,2.0,4.0,69,0.00,,,0.06,vanprod-2.3,2017-07-21 19:54:00,
2017-07-21 14:59:00,85.4,74.1,29.84,SE,131,1.0,0.0,69,0.00,,,0.06,vanprod-2.3,2017-07-21 19:59:00,
2017-07-21 15:04:00,85.2,73.0,29.84,South,181,1.0,0.0,67,0.00,,,0.06,vanprod-2.3,2017-07-21 20:04:00,
2017-07-21 15:09:00,85.2,73.0,29.83,SSE,150,3.0,6.0,67,0.00,,,0.06,vanprod-2.3,2017-07-21 20:09:00,
2017-07-21 15:14:00,85.0,72.8,29.83,South,178,2.0,3.0,67,0.00,,,0.06,vanprod-2.3,2017-07-21 20:14:00,
2017-07-21 15:19:00,85.2,72.6,29.83,SE,129,1.0,2.0,66,0.00,,,0.06,vanprod-2.3,2017-07-21 20:19:00,
2017-07-21 15:24:00,85.6,73.4,29.82,SE,145,1.0,7.0,67,0.00,,,0.06,vanprod-2.3,2017-07-21 20:24:00,
2017-07-21 15:29:00,85.6,73.4,29.82,SE,137,1.0,0.0,67,0.00,,,0.06,vanprod-2.3,2017-07-21 20:29:00,
2017-07-21 15:34:00,86.2,74.0,29.82,SE,132,1.0,1.0,67,0.00,,,0.06,vanprod-2.3,2017-07-21 20:34:00,
2017-07-21 15:39:00,86.5,73.3,29.82,WSW,250,2.0,7.0,65,0.00,,,0.06,vanprod-2.3,2017-07-21 20:39:00,
2017-07-21 15:44:00,86.5,72.9,29.82,SE,140,2.0,7.0,64,0.00,,,0.06,vanprod-2.3,2017-07-21 20:44:00,
2017-07-21 15:49:00,85.8,72.7,29.82,SSE,153,1.0,1.0,65,0.00,,,0.06,vanprod-2.3,2017-07-21 20:49:00,
2017-07-21 15:54:00,86.2,72.1,29.82,SSE,165,2.0,8.0,63,0.00,,,0.06,vanprod-2.3,2017-07-21 20:54:00,
2017-07-21 15:59:00,86.0,72.9,29.82,South,173,1.0,6.0,65,0.00,,,0.06,vanprod-2.3,2017-07-21 20:59:00,
2017-07-21 16:04:00,86.0,72.9,29.81,South,170,2.0,2.0,65,0.00,,,0.06,vanprod-2.3,2017-07-21 21:04:00,
2017-07-21 16:09:00,86.0,72.9,29.81,SSE,148,1.0,1.0,65,0.00,,,0.06,vanprod-2.3,2017-07-21 21:09:00,
2017-07-21 16:14:00,86.0,72.9,29.82,SSE,152,2.0,11.0,65,0.00,,,0.06,vanprod-2.3,2017-07-21 21:14:00,
2017-07-21 16:19:00,85.8,72.7,29.81,SSW,193,1.0,5.0,65,0.00,,,0.06,vanprod-2.3,2017-07-21 21:19:00,
2017-07-21 16:24:00,86.0,72.9,29.81,South,179,1.0,5.0,65,0.00,,,0.06,vanprod-2.3,2017-07-21 21:24:00,
2017-07-21 16:29:00,85.4,73.2,29.81,SSE,166,2.0,6.0,67,0.00,,,0.06,vanprod-2.3,2017-07-21 21:29:00,
2017-07-21 16:34:00,85.2,73.9,29.81,SSE,152,1.0,1.0,69,0.00,,,0.06,vanprod-2.3,2017-07-21 21:34:00,
2017-07-21 16:39:00,85.0,74.1,29.81,South,174,0.0,2.0,70,0.00,,,0.06,vanprod-2.3,2017-07-21 21:39:00,
2017-07-21 16:44:00,85.0,73.7,29.81,SSE,148,3.0,8.0,69,0.00,,,0.06,vanprod-2.3,2017-07-21 21:44:00,
2017-07-21 16:49:00,84.8,73.5,29.82,South,181,3.0,7.0,69,0.00,,,0.06,vanprod-2.3,2017-07-21 21:49:00,
2017-07-21 16:54:00,84.4,73.6,29.81,SE,139,2.0,5.0,70,0.00,,,0.06,vanprod-2.3,2017-07-21 21:54:00,
2017-07-21 16:59:00,84.4,72.7,29.81,SSE,161,2.0,7.0,68,0.00,,,0.06,vanprod-2.3,2017-07-21 21:59:00,
2017-07-21 17:04:00,84.2,72.9,29.81,South,175,2.0,5.0,69,0.00,,,0.06,vanprod-2.3,2017-07-21 22:04:00,
2017-07-21 17:09:00,84.4,73.1,29.81,SW,217,2.0,5.0,69,0.00,,,0.06,vanprod-2.3,2017-07-21 22:09:00,
2017-07-21 17:14:00,84.0,72.7,29.81,South,169,2.0,6.0,69,0.00,,,0.06,vanprod-2.3,2017-07-21 22:14:00,
2017-07-21 17:19:00,83.8,73.0,29.81,South,183,1.0,7.0,70,0.00,,,0.06,vanprod-2.3,2017-07-21 22:19:00,
2017-07-21 17:24:00,84.2,72.9,29.81,SSE,149,1.0,3.0,69,0.00,,,0.06,vanprod-2.3,2017-07-21 22:24:00,
2017-07-21 17:29:00,84.6,73.3,29.81,SSE,157,2.0,5.0,69,0.00,,,0.06,vanprod-2.3,2017-07-21 22:29:00,
2017-07-21 17:34:00,84.4,73.1,29.81,SSE,155,2.0,2.0,69,0.00,,,0.06,vanprod-2.3,2017-07-21 22:34:00,
2017-07-21 17:39:00,84.6,73.3,29.81,SE,131,0.0,0.0,69,0.00,,,0.06,vanprod-2.3,2017-07-21 22:39:00,
2017-07-21 17:44:00,84.8,73.1,29.81,SSW,199,1.0,5.0,68,0.00,,,0.06,vanprod-2.3,2017-07-21 22:44:00,
2017-07-21 17:49:00,84.8,73.1,29.81,South,177,0.0,3.0,68,0.00,,,0.06,vanprod-2.3,2017-07-21 22:49:00,
2017-07-21 17:54:00,84.4,73.1,29.81,South,172,1.0,2.0,69,0.00,,,0.06,vanprod-2.3,2017-07-21 22:54:00,
2017-07-21 17:59:00,85.0,73.3,29.81,SE,140,1.0,1.0,68,0.00,,,0.06,vanprod-2.3,2017-07-21 22:59:00,
2017-07-21 18:04:00,84.8,73.5,29.81,SSE,161,2.0,3.0,69,0.00,,,0.06,vanprod-2.3,2017-07-21 23:04:00,
2017-07-21 18:09:00,84.4,72.7,29.81,SSE,160,2.0,4.0,68,0.00,,,0.06,vanprod-2.3,2017-07-21 23:09:00,
2017-07-21 18:14:00,84.2,72.5,29.80,SSE,165,2.0,0.0,68,0.00,,,0.06,vanprod-2.3,2017-07-21 23:14:00,
2017-07-21 18:19:00,84.0,72.7,29.80,South,181,2.0,2.0,69,0.00,,,0.06,vanprod-2.3,2017-07-21 23:19:00,
2017-07-21 18:24:00,83.8,73.0,29.79,SE,126,1.0,2.0,70,0.00,,,0.06,vanprod-2.3,2017-07-21 23:24:00,
2017-07-21 18:29:00,83.8,73.0,29.79,SE,135,1.0,2.0,70,0.00,,,0.06,vanprod-2.3,2017-07-21 23:29:00,
2017-07-21 18:34:00,83.8,73.0,29.78,South,177,1.0,3.0,70,0.00,,,0.06,vanprod-2.3,2017-07-21 23:34:00,
2017-07-21 18:39:00,83.6,72.8,29.78,SSE,168,2.0,5.0,70,0.00,,,0.06,vanprod-2.3,2017-07-21 23:39:00,
2017-07-21 18:44:00,83.6,73.2,29.78,SE,136,1.0,0.0,71,0.00,,,0.06,vanprod-2.3,2017-07-21 23:44:00,
2017-07-21 18:49:00,83.3,72.9,29.78,South,174,0.0,6.0,71,0.00,,,0.06,vanprod-2.3,2017-07-21 23:49:00,
2017-07-21 18:54:00,83.6,73.6,29.78,South,177,1.0,0.0,72,0.00,,,0.06,vanprod-2.3,2017-07-21 23:54:00,
2017-07-21 18:59:00,83.5,73.5,29.78,South,174,0.0,2.0,72,0.00,,,0.06,vanprod-2.3,2017-07-21 23:59:00,
2017-07-21 19:04:00,83.3,73.7,29.78,South,176,0.0,0.0,73,0.00,,,0.06,vanprod-2.3,2017-07-22 00:04:00,
2017-07-21 19:09:00,83.1,74.0,29.78,SSE,158,1.0,7.0,74,0.00,,,0.06,vanprod-2.3,2017-07-22 00:09:00,
2017-07-21 19:14:00,82.9,73.8,29.78,South,170,1.0,5.0,74,0.00,,,0.06,vanprod-2.3,2017-07-22 00:14:00,
2017-07-21 19:19:00,82.7,73.6,29.79,ESE,119,1.0,1.0,74,0.00,,,0.06,vanprod-2.3,2017-07-22 00:19:00,
2017-07-21 19:24:00,82.5,73.4,29.79,SSW,212,0.0,0.0,74,0.00,,,0.06,vanprod-2.3,2017-07-22 00:24:00,
2017-07-21 19:29:00,82.9,73.8,29.79,SSE,147,0.0,0.0,74,0.00,,,0.06,vanprod-2.3,2017-07-22 00:29:00,
2017-07-21 19:34:00,82.5,73.4,29.79,SSE,157,0.0,0.0,74,0.00,,,0.06,vanprod-2.3,2017-07-22 00:34:00,
2017-07-21 19:39:00,82.1,73.0,29.79,SE,124,0.0,0.0,74,0.00,,,0.06,vanprod-2.3,2017-07-22 00:39:00,
2017-07-21 19:44:00,82.3,73.6,29.79,SE,131,0.0,1.0,75,0.00,,,0.06,vanprod-2.3,2017-07-22 00:44:00,